Theta_e
322 322 322 323 324 325 325 326 326 327 328 327 326 326 326 326 326 328 327 327 327 328 328 328 330 330 329 330 331 328 317 304 299 301 301 302 313 330 332 334 334 334 328 304 302 304 303 296 302 300 302 301 301 303 303 303 296 295 292 287 290 287 288 289 291 290 291 292 293 290 292 293 291 293 294 293 292 289 290 292 290 290 290 291 293 292 295 295
321 321 321 322 323 324 324 324 325 326 327 327 327 326 325 325 326 327 326 326 327 327 327 329 330 330 330 329 327 325 307 305 302 301 302 315 327 330 332 334 334 333 323 304 300 298 300 298 299 298 302 300 300 302 302 301 297 290 287 288 291 287 290 292 291 292 292 295 291 291 290 292 293 292 293 293 291 290 291 292 289 291 290 291 292 293 294 293
320 321 321 321 322 323 323 324 324 325 326 326 327 326 325 324 325 326 325 326 326 326 327 328 329 329 329 329 323 319 309 304 302 300 303 328 328 331 333 332 333 329 308 307 305 300 301 300 300 297 295 296 295 301 297 299 300 293 292 290 287 290 290 289 290 292 292 291 290 291 290 291 293 293 292 293 289 288 291 292 290 289 292 290 290 291 292 292
320 320 320 320 321 322 322 323 324 324 325 326 326 326 325 324 324 325 325 327 326 326 327 328 328 328 328 327 325 313 306 303 300 299 302 324 328 331 331 332 327 317 305 302 300 299 297 297 295 298 295 293 294 294 297 297 298 295 290 287 291 290 293 293 289 291 290 291 290 290 289 290 291 291 292 290 291 289 291 294 295 293 293 290 290 291 291 291
319 320 320 320 320 321 321 322 323 324 325 325 325 326 325 324 325 324 324 326 326 326 326 327 327 327 327 325 322 313 302 297 298 302 305 323 330 331 329 330 325 304 305 300 299 297 297 298 296 293 297 295 291 293 295 295 295 291 293 290 291 289 292 293 289 289 289 288 288 287 292 291 291 292 291 290 293 294 293 295 295 296 294 290 289 291 291 290
318 319 319 319 319 320 320 321 323 324 324 324 325 325 325 325 325 325 324 325 325 325 326 327 327 327 327 325 304 305 301 291 301 303 322 326 328 328 326 327 318 299 297 296 298 297 300 298 296 295 292 291 292 292 293 292 293 294 290 288 288 289 293 291 289 289 288 289 289 288 291 291 292 290 290 290 294 295 292 291 293 294 293 292 292 291 290 290
318 318 318 318 318 319 320 321 322 323 324 324 324 324 325 325 325 323 324 324 325 325 326 327 326 326 325 323 303 302 300 299 300 304 317 323 324 323 319 321 315 301 300 300 297 300 295 295 294 293 290 290 291 292 293 293 290 291 292 288 292 288 291 291 293 288 287 290 290 289 290 291 289 291 289 290 293 294 288 289 289 291 292 291 290 290 290 290
318 318 318 318 318 318 319 320 321 321 323 323 324 324 325 325 325 324 324 324 325 324 326 326 327 324 323 308 309 300 296 301 303 303 316 321 308 310 314 302 301 301 299 297 298 297 295 295 294 292 290 292 292 292 293 293 289 292 291 290 291 288 289 287 288 287 286 288 287 289 291 291 290 291 288 290 294 294 290 288 289 290 290 290 290 290 290 290
319 319 318 318 317 317 318 319 320 321 322 322 323 324 324 325 325 324 324 324 325 324 326 327 325 325 318 301 300 297 294 301 303 303 303 301 302 302 303 306 300 301 297 296 295 298 301 296 294 293 296 291 293 293 291 291 291 290 293 290 289 289 289 287 289 288 287 287 288 292 290 289 288 288 290 295 294 292 288 288 288 288 289 289 289 290 289 289
319 319 319 318 317 317 318 318 319 320 321 322 322 323 324 324 324 323 324 324 324 324 325 327 325 322 307 301 295 292 297 303 304 302 300 300 301 302 303 301 296 297 300 296 296 296 300 295 299 296 294 293 292 291 290 293 292 290 290 290 291 291 288 289 291 288 286 288 287 290 289 287 288 289 292 286 286 287 289 287 287 288 288 289 289 289 289 289
319 319 319 318 317 317 318 318 319 320 321 321 322 323 323 323 324 324 323 324 323 324 326 326 324 319 303 301 296 290 301 304 303 301 301 301 302 302 303 302 299 298 297 297 297 298 296 295 296 295 298 294 291 290 289 293 290 290 291 288 288 286 287 286 287 287 288 292 285 290 288 287 289 289 291 292 287 288 288 286 286 287 288 288 289 289 289 289
319 319 319 319 318 317 318 318 318 318 319 320 321 322 322 323 323 323 323 324 323 324 325 323 319 301 296 297 294 295 302 304 302 302 303 303 303 303 301 301 299 299 298 298 299 299 298 297 296 295 295 295 291 291 291 291 291 289 288 291 289 286 292 289 289 288 289 291 286 288 289 286 286 288 293 288 287 287 287 286 286 286 287 288 288 288 288 288
319 319 319 319 318 318 318 318 318 318 319 320 321 321 322 322 323 323 323 323 322 324 324 320 312 303 302 296 295 300 302 302 301 300 303 303 301 299 300 299 300 298 298 297 299 299 297 296 295 295 294 291 290 292 291 290 288 289 288 287 289 286 287 289 287 286 288 291 286 289 288 289 289 292 290 285 286 286 286 285 286 286 286 286 286 287 287 287
319 318 318 318 318 318 317 317 318 319 319 320 321 321 321 322 322 322 322 323 325 325 326 320 301 299 299 292 298 302 301 298 301 304 301 301 301 303 299 301 300 298 300 300 298 297 298 296 298 296 296 293 292 296 290 285 286 289 287 285 285 286 286 289 288 287 290 288 285 289 288 292 291 290 291 286 286 287 287 287 286 286 285 286 286 286 287 287
318 318 318 318 318 317 317 317 318 318 319 320 320 321 321 321 321 321 324 325 326 326 324 317 301 302 295 296 300 302 318 300 302 302 301 298 300 299 301 301 300 299 299 300 299 297 296 298 297 293 295 291 292 292 286 284 283 282 288 285 280 286 284 285 288 287 290 289 287 290 286 290 293 293 288 285 285 286 288 288 286 285 285 285 285 286 286 287
318 318 318 318 317 317 317 317 317 318 319 319 319 320 320 320 319 321 326 323 322 321 308 308 304 297 294 294 302 315 302 301 300 300 300 298 298 299 297 298 299 299 297 298 298 296 296 297 293 291 290 291 287 280 283 287 287 280 286 284 284 283 283 286 288 283 286 288 289 289 289 287 291 288 284 284 285 285 287 287 286 285 285 285 285 286 286 286
318 318 318 317 317 317 317 317 317 317 318 318 319 319 320 319 320 324 322 316 311 308 306 305 299 300 294 299 305 300 299 300 301 300 300 299 298 298 297 298 297 299 298 298 298 298 295 293 290 291 288 288 282 285 289 280 280 283 281 285 281 285 284 285 285 286 285 287 287 288 286 289 293 291 285 284 285 284 285 286 287 286 286 286 286 286 286 286
318 318 317 317 317 317 317 317 317 317 318 318 318 319 316 319 321 320 315 308 306 303 303 301 297 299 293 300 298 299 298 297 301 299 299 300 295 295 295 294 294 294 295 297 297 297 295 295 291 290 288 284 286 284 284 280 282 283 284 284 286 281 281 285 285 287 287 287 286 285 285 288 291 293 291 285 285 284 286 287 288 287 286 286 285 286 286 286
318 318 317 317 317 317 317 316 316 317 318 318 319 316 316 313 299 298 297 296 303 297 293 297 294 287 288 294 294 297 298 302 299 299 301 299 299 295 295 295 295 297 292 292 293 296 291 292 290 288 289 286 285 288 287 287 282 286 284 285 282 284 285 283 284 284 285 285 285 284 286 288 289 291 293 288 284 285 287 287 287 287 287 286 285 286 286 286
318 318 317 317 317 317 316 316 316 317 318 315 309 299 295 295 290 294 294 298 294 296 293 291 293 294 294 294 296 301 301 298 299 297 299 297 299 298 293 295 295 293 291 292 291 290 290 289 287 288 289 288 287 286 288 284 285 283 282 282 282 282 283 284 282 284 282 285 285 287 286 285 287 289 291 292 285 284 285 286 286 287 287 286 285 285 286 286
318 317 317 317 316 316 316 316 316 317 318 310 300 295 294 287 289 287 288 292 290 290 292 291 292 293 295 297 295 299 299 299 296 297 299 301 297 296 293 293 290 293 287 287 292 289 292 288 289 289 288 286 285 282 281 282 282 284 283 282 283 281 283 286 286 283 282 285 282 281 282 284 286 288 290 290 287 288 288 287 286 287 287 286 286 286 286 287
318 317 317 316 316 316 316 316 316 317 314 300 293 295 291 291 293 291 292 291 293 291 290 290 291 292 294 296 297 296 297 296 295 297 299 299 295 295 291 291 287 290 286 287 290 289 287 287 290 287 284 280 279 281 281 284 283 282 284 281 282 283 282 284 283 281 283 283 283 283 282 286 288 290 292 291 291 293 293 290 290 289 288 286 286 287 287 286
317 317 316 316 316 316 316 316 316 315 296 295 293 291 291 297 296 295 297 290 291 292 293 294 294 293 293 295 296 297 297 294 292 294 297 298 294 294 287 288 288 285 286 288 289 284 288 285 287 283 281 283 281 281 282 281 281 282 280 283 284 282 284 283 283 281 284 284 284 284 283 285 288 290 290 292 292 293 293 291 290 290 289 287 287 288 287 286
317 316 316 316 315 316 316 315 315 302 295 294 293 293 297 294 296 299 297 291 289 291 292 292 294 292 292 295 297 297 294 292 293 293 296 296 293 290 291 286 286 286 288 285 288 288 289 287 283 281 282 285 283 283 283 283 284 282 283 282 283 283 283 284 283 281 281 282 281 282 284 286 286 287 288 285 284 286 289 289 289 289 289 290 289 288 288 288
317 316 316 316 315 316 315 315 298 295 297 295 293 296 295 296 297 297 296 288 285 287 293 294 294 294 297 299 297 297 292 291 290 293 293 295 289 290 290 286 289 287 286 283 285 286 287 286 282 284 284 284 284 283 282 284 283 278 281 285 286 284 284 281 281 282 281 280 281 281 283 283 279 282 284 287 285 286 285 286 288 288 287 287 287 288 288 288
317 316 316 315 316 315 315 304 295 299 298 296 295 295 293 292 295 294 288 281 281 282 289 290 301 297 301 296 295 292 294 292 292 291 296 293 295 292 290 289 288 287 283 284 286 283 288 282 284 286 284 284 284 284 281 285 282 283 284 282 284 283 283 282 281 283 278 277 283 280 281 281 282 288 285 283 283 286 288 288 292 289 286 286 287 288 288 287
317 316 316 316 315 314 305 294 301 300 296 296 297 297 294 296 293 299 286 278 278 286 287 292 295 295 300 296 294 293 288 286 292 291 292 294 294 295 290 287 286 285 284 285 286 287 283 282 282 283 284 284 283 283 283 285 283 282 282 279 281 282 282 281 282 283 281 280 281 281 283 280 281 284 288 289 288 290 290 291 291 291 288 286 287 288 288 287
317 316 316 316 314 313 307 307 305 297 296 298 296 293 293 295 294 292 283 274 270 291 291 291 295 299 299 295 292 290 289 291 289 290 289 292 293 291 291 284 289 287 284 287 285 286 283 283 282 283 282 281 284 282 282 285 283 281 281 280 280 281 281 279 282 279 278 278 277 278 282 279 278 278 280 283 285 287 288 289 290 291 289 287 287 287 287 287
317 316 315 315 315 312 304 303 300 296 299 299 295 295 294 293 290 285 280 272 284 288 300 294 302 298 294 296 294 287 291 289 289 289 289 291 293 290 288 285 285 283 283 287 289 285 284 283 283 285 283 283 282 280 281 286 285 284 280 280 279 278 278 278 277 279 276 275 278 280 280 276 282 281 282 280 282 284 286 288 290 290 290 288 286 286 286 286
318 317 316 315 310 306 302 299 297 300 297 296 294 294 294 293 289 284 276 269 287 287 292 294 294 290 291 291 290 290 290 288 286 287 289 289 290 289 287 285 284 285 287 281 284 283 284 285 285 284 284 284 280 280 280 281 282 281 281 282 281 277 276 275 275 274 274 272 280 283 280 282 280 281 282 283 284 285 288 287 288 288 288 286 286 286 286 285
317 318 316 315 307 307 300 298 295 297 296 295 294 295 292 284 281 275 272 279 286 288 290 290 289 292 291 290 290 289 288 286 289 287 288 289 289 286 286 289 287 282 278 281 283 283 283 283 284 283 283 281 282 282 281 280 280 282 282 281 281 281 276 273 264 270 271 274 278 277 279 281 276 279 281 284 282 283 288 288 289 289 289 288 286 285 285 285
317 317 317 312 309 307 304 299 300 298 298 296 293 289 286 283 279 277 275 288 282 283 286 285 287 288 288 288 285 286 289 288 286 287 286 283 283 286 286 287 283 279 279 280 284 279 282 283 282 284 284 285 282 282 282 281 282 281 280 278 276 271 273 272 268 272 270 276 277 273 277 277 278 284 283 284 285 286 285 287 288 288 289 287 285 284 284 284
316 316 316 312 308 304 303 302 300 298 300 297 290 289 285 279 276 280 278 282 281 285 287 286 286 286 285 288 287 286 287 288 287 285 285 284 283 285 284 285 283 286 284 277 281 279 283 280 281 284 284 284 286 285 279 279 280 281 282 276 272 270 269 267 269 264 268 274 274 278 276 277 283 284 289 288 290 289 288 287 288 288 290 288 286 283 282 283
317 316 312 310 309 309 305 301 300 300 297 295 291 288 281 274 277 290 284 282 284 283 285 284 285 284 286 289 284 286 287 286 286 286 286 283 283 282 285 284 283 286 282 278 280 277 276 282 281 284 283 284 287 290 286 281 280 282 281 283 280 272 268 270 267 274 278 277 273 274 274 275 275 282 283 290 292 291 289 287 286 285 285 284 282 282 282 282
317 315 313 308 308 305 304 302 301 301 298 293 289 285 279 280 279 278 279 283 282 284 285 285 286 284 285 285 283 285 288 289 285 284 284 284 282 281 282 287 285 284 282 283 282 276 282 282 280 284 282 285 285 283 282 282 281 279 278 281 277 279 278 277 273 268 268 273 276 271 278 277 283 283 283 280 281 284 286 287 286 287 285 281 282 283 283 282
315 312 312 307 307 307 304 302 302 302 294 291 287 282 281 283 278 280 283 285 284 285 285 284 282 284 282 280 280 284 288 287 285 285 283 284 283 283 282 285 286 289 287 286 283 281 280 280 281 282 281 282 284 281 283 284 282 280 281 279 281 282 283 276 272 269 268 267 276 269 277 282 285 286 285 287 283 284 284 283 283 285 285 281 283 284 283 283
310 310 305 307 307 306 305 304 305 301 293 289 286 282 286 283 282 282 292 286 285 286 284 283 282 284 282 281 284 282 286 287 284 284 283 283 284 285 282 284 286 288 292 292 283 286 284 283 282 281 283 283 280 281 281 279 283 281 276 280 282 282 281 279 276 272 264 269 276 270 278 281 282 280 281 282 281 284 286 284 285 286 284 282 284 285 285 283
309 306 307 306 308 307 305 305 305 297 290 287 284 289 283 286 285 286 285 285 287 289 285 283 281 287 281 282 280 282 284 287 282 284 282 284 284 286 285 286 287 290 292 291 288 286 288 283 283 281 281 282 280 282 284 283 281 280 277 282 282 276 276 275 269 272 268 268 270 274 281 281 283 283 283 281 281 283 283 284 284 284 283 282 283 284 284 282
308 305 299 306 309 307 305 306 304 297 289 285 284 286 287 283 285 283 286 285 288 286 284 284 283 284 284 281 280 282 284 283 283 284 282 282 282 286 287 289 287 287 290 292 288 284 287 285 282 280 280 281 281 282 279 280 282 281 282 281 281 279 271 273 278 270 272 272 267 276 280 279 284 282 282 286 284 284 284 282 283 284 285 284 284 284 284 282
304 299 297 307 308 307 306 307 301 294 288 283 285 285 283 283 286 285 284 288 287 286 284 284 283 282 283 283 282 283 283 283 282 283 283 282 285 285 286 289 288 286 287 291 290 287 284 283 283 281 279 281 279 281 282 282 278 278 279 276 276 275 277 276 274 273 275 269 270 271 275 281 285 285 285 285 283 284 285 286 285 286 285 285 284 285 284 283
305 299 298 305 307 307 307 303 296 290 288 288 288 287 286 286 285 286 287 286 287 287 286 282 281 283 284 282 283 281 284 284 282 282 283 281 284 282 286 290 288 286 286 287 287 285 283 281 284 280 278 278 281 282 282 282 284 282 282 280 282 277 275 272 276 272 267 272 271 268 275 282 287 285 286 284 283 284 285 286 286 285 285 284 284 283 283 283
301 291 296 304 307 308 302 293 292 294 290 288 287 289 286 294 286 285 289 287 287 286 285 286 283 284 283 284 282 282 284 281 283 282 281 284 284 286 283 288 288 289 289 285 287 286 286 280 283 282 283 285 283 280 278 280 282 282 283 282 284 282 280 274 274 276 265 273 269 269 268 279 288 282 284 284 283 284 285 285 286 287 284 284 283 283 283 283
299 296 301 304 307 307 299 291 293 291 290 292 292 290 289 288 286 285 288 288 287 287 287 287 287 285 285 285 282 282 284 282 283 283 280 281 285 288 283 288 287 287 286 284 285 284 290 282 280 283 286 280 278 278 279 279 282 281 281 278 280 280 282 282 283 277 275 271 274 268 270 280 288 283 283 282 282 283 283 283 286 285 284 284 283 282 281 281
300 297 296 303 308 306 296 286 287 288 290 293 293 292 292 290 287 286 286 287 289 286 288 288 287 289 287 286 285 285 285 282 285 284 284 284 283 283 285 287 290 287 290 287 288 290 283 283 283 279 276 281 278 278 279 278 280 278 278 282 282 283 281 277 273 273 272 277 275 275 272 279 287 281 282 280 280 281 281 280 281 284 283 283 282 282 281 280
300 299 297 299 303 303 292 294 291 289 290 290 290 289 290 290 291 292 291 288 290 287 286 286 288 287 287 287 286 287 286 288 285 286 288 285 285 283 283 287 291 289 289 289 293 292 287 283 283 277 277 275 274 276 274 272 278 279 276 277 281 282 281 277 277 276 275 277 276 277 278 284 289 286 284 282 279 282 279 280 280 281 282 282 282 282 281 280
295 288 294 293 297 296 297 297 292 292 290 289 288 290 291 288 290 289 292 291 292 288 287 286 285 285 287 285 284 286 286 286 286 284 284 282 282 284 280 283 288 289 291 292 291 291 283 283 286 285 282 280 282 283 280 279 277 277 276 278 280 281 283 282 281 278 276 276 274 280 282 283 285 287 288 290 285 286 288 286 280 281 280 280 281 282 282 280
298 293 288 284 294 293 292 295 292 291 288 293 286 290 288 289 291 289 293 288 291 290 288 288 287 286 284 285 285 285 286 285 284 285 284 284 278 280 281 282 285 285 290 290 291 286 280 281 284 285 285 285 286 285 283 282 279 278 279 278 280 280 280 279 278 278 282 274 275 281 283 281 283 286 288 289 290 289 290 290 290 288 285 283 283 282 283 279
292 295 297 295 290 285 287 288 293 291 292 291 289 292 289 289 289 287 289 291 288 290 288 287 289 289 289 287 287 283 285 284 284 283 287 286 284 283 284 284 285 288 288 285 286 286 282 283 286 285 284 286 286 286 284 279 282 281 280 281 280 280 279 278 279 282 282 279 278 283 283 281 283 287 289 289 290 289 290 290 291 290 289 285 283 281 280 279
301 295 297 300 292 292 291 291 293 291 291 290 289 291 289 289 288 290 289 285 288 287 291 285 287 289 289 289 287 284 285 281 282 286 285 286 284 283 284 285 285 283 287 283 285 284 283 283 285 284 283 283 284 284 284 281 281 282 281 281 282 282 280 280 281 283 282 281 283 284 284 283 286 288 290 290 291 290 290 292 291 290 289 288 285 283 281 279
296 295 292 297 296 295 294 293 292 291 289 291 287 288 290 289 288 290 287 288 284 286 291 287 289 289 289 289 288 285 286 287 286 284 287 287 284 286 285 286 283 282 284 285 284 283 285 282 288 285 283 283 285 286 284 282 282 281 283 284 284 283 282 282 282 282 283 281 282 282 282 282 288 291 290 292 292 291 291 290 291 291 291 290 290 287 282 281
304 304 300 294 291 292 294 293 291 289 287 289 287 289 290 289 289 291 290 293 291 287 287 288 290 289 285 288 288 288 290 290 289 289 288 287 286 288 287 285 288 282 282 282 282 281 285 282 286 283 281 281 285 284 284 283 282 282 282 284 284 284 282 283 282 283 281 280 282 281 279 281 286 289 289 289 289 289 289 290 290 291 291 290 289 290 286 282
307 303 302 299 291 294 292 292 292 290 285 289 290 289 290 289 292 292 287 291 291 292 292 291 291 289 285 286 287 289 292 293 292 293 293 292 291 289 292 288 289 285 282 283 284 282 283 282 282 282 279 279 284 284 280 280 280 278 280 284 285 285 286 286 287 286 285 285 281 279 281 287 288 289 288 287 287 287 288 289 290 290 290 289 290 290 289 285
Wind_Speed
19 19 19 18 19 19 19 18 18 17 17 17 17 17 17 18 17 15 13 10 12 11 10 10 9 9 7 6 6 7 5 3 4 1 2 3 3 5 7 8 9 8 3 1 3 3 1 4 2 6 2 3 3 1 0 3 2 1 1 5 1 2 3 6 7 10 2 1 3 5 7 6 3 1 1 1 5 3 1 5 4 4 4 3 5 3 6 11
19 19 19 19 19 19 19 19 19 18 17 17 17 16 17 17 17 16 16 13 10 10 10 10 10 9 8 6 5 6 6 3 1 2 1 0 0 5 8 8 7 5 3 2 4 3 2 2 1 3 3 2 2 1 1 0 1 3 2 2 2 5 5 7 5 6 2 1 2 4 4 3 6 9 4 3 2 2 2 5 1 6 6 3 2 7 12 12
19 19 20 20 20 20 19 20 19 19 18 17 15 16 15 15 15 16 18 17 13 9 8 9 9 9 8 6 5 4 2 2 1 3 1 3 5 8 8 8 6 2 1 1 1 4 1 2 3 4 3 4 7 1 3 2 1 1 2 1 2 8 3 7 5 4 5 4 3 5 3 3 1 6 3 4 3 3 10 8 5 9 11 7 7 8 11 12
18 19 19 20 20 20 20 20 20 20 19 18 17 15 15 14 15 16 16 15 15 13 7 8 9 8 8 6 4 3 1 2 1 1 1 5 7 7 8 7 3 3 3 8 4 4 5 8 6 3 2 6 2 2 1 2 0 1 2 3 2 3 1 2 8 7 5 3 3 5 2 2 2 4 4 4 1 8 11 10 14 17 17 12 11 11 11 13
17 19 19 19 20 20 20 20 21 21 20 19 17 14 13 14 13 14 17 15 13 15 11 6 8 9 7 6 5 0 3 1 4 0 2 6 7 6 6 3 2 2 3 7 4 5 8 5 1 6 3 1 3 2 0 1 0 3 1 1 1 2 1 2 8 3 5 2 6 3 5 7 2 1 4 9 9 11 11 15 14 10 7 16 16 14 11 13
17 18 18 19 19 20 20 21 21 21 21 20 18 17 15 13 13 12 15 15 15 14 13 7 7 8 7 5 1 1 3 1 0 0 3 7 6 5 3 3 6 6 4 5 2 3 3 6 3 2 2 2 1 2 2 1 2 1 2 3 4 4 1 0 2 4 5 3 4 4 5 5 6 2 4 10 17 3 1 0 7 10 11 14 14 15 14 15
16 18 18 19 20 20 20 21 21 21 21 21 20 18 15 14 12 15 13 15 15 13 12 8 7 6 7 3 2 4 1 5 1 3 5 7 5 2 4 6 5 3 2 1 3 1 3 3 6 1 3 2 2 1 1 1 2 2 2 1 3 5 5 2 1 3 4 7 3 3 3 4 4 5 1 10 18 7 1 3 3 6 11 13 14 15 19 20
16 16 16 17 19 20 20 20 21 21 21 22 21 19 17 15 15 13 14 14 13 14 11 8 6 5 5 1 0 1 2 4 2 2 5 5 6 2 7 5 4 3 7 3 1 3 2 4 2 3 4 2 2 4 0 1 2 1 0 2 1 1 6 4 1 1 3 2 2 3 3 4 8 3 2 13 14 11 5 5 6 9 11 11 13 15 14 14
14 15 15 16 17 19 21 21 21 21 22 22 22 20 19 17 15 15 15 15 13 13 9 6 5 4 3 2 2 2 5 2 2 3 6 4 5 8 2 1 4 5 4 2 3 4 2 1 1 5 3 2 2 1 0 1 3 2 1 2 0 3 4 3 2 2 2 0 1 0 7 4 3 4 9 23 10 7 6 6 9 10 12 14 16 16 15 15
15 16 16 16 16 18 20 20 20 21 22 23 22 21 21 19 15 15 16 16 13 11 9 3 3 3 2 2 2 0 2 1 2 3 4 2 1 7 10 2 2 5 2 2 2 3 2 4 1 5 7 4 2 1 1 1 1 2 2 3 3 1 3 3 2 2 0 2 3 4 6 4 3 2 11 3 4 8 7 7 6 11 14 14 13 13 13 15
14 15 16 15 15 18 20 19 21 21 22 22 22 22 21 19 17 16 16 15 14 10 5 3 3 1 0 1 3 5 2 3 0 3 3 2 9 8 3 5 1 3 8 3 4 0 2 7 4 4 1 2 3 0 0 0 2 2 1 0 2 6 4 5 3 4 0 2 7 5 4 1 2 1 15 3 3 6 10 7 9 10 12 11 13 13 11 12
13 15 15 15 15 17 19 19 20 22 22 22 23 22 21 19 17 15 16 14 13 8 3 1 4 4 3 2 5 5 2 2 2 3 5 3 6 1 3 2 0 4 2 3 1 1 2 6 4 1 1 2 1 1 0 1 1 0 0 2 3 7 1 0 3 1 2 2 6 5 2 4 3 10 17 2 4 5 6 9 9 10 9 10 11 10 10 12
10 13 15 14 15 16 18 19 20 21 21 23 22 22 22 20 17 15 15 12 6 4 2 5 4 1 2 1 7 6 1 2 3 6 6 7 6 3 3 3 5 3 2 7 3 2 3 5 3 6 0 3 3 0 1 3 2 1 4 1 4 6 5 1 0 2 3 1 7 2 6 7 13 22 7 4 7 5 4 7 9 9 8 9 10 11 10 8
9 11 12 15 15 15 17 20 20 21 21 23 23 23 23 20 16 15 14 10 9 3 2 5 3 2 1 4 4 3 2 3 2 4 3 1 2 1 3 4 4 4 3 10 3 4 2 0 6 5 2 2 1 1 2 3 3 2 1 4 1 2 3 1 1 1 1 1 5 0 4 13 7 10 10 6 8 10 9 10 9 9 9 9 10 11 11 13
9 10 11 15 16 16 17 18 20 21 22 23 24 24 24 22 17 14 11 5 3 4 4 3 1 2 1 5 3 6 5 3 3 1 1 0 3 1 2 4 7 7 4 6 3 1 2 2 3 3 0 0 0 1 2 3 4 2 1 4 3 2 4 6 1 4 5 1 1 2 5 13 16 9 3 5 6 6 10 10 10 10 10 11 10 11 10 12
10 10 12 13 15 18 19 19 19 21 23 24 24 26 24 19 15 10 5 5 4 5 1 1 1 3 1 4 1 5 2 1 1 1 1 0 1 1 1 4 1 5 3 3 2 2 4 7 7 1 0 1 4 4 3 3 2 5 1 4 4 1 5 8 0 2 2 1 0 6 8 7 12 4 2 4 7 8 9 9 10 12 12 11 10 10 12 10
9 10 11 13 16 18 18 17 19 21 22 24 26 25 22 15 10 3 6 5 2 0 1 1 1 1 2 1 1 1 1 1 2 1 4 2 2 6 4 2 2 1 4 2 3 2 3 4 1 1 5 3 2 4 1 4 6 3 2 3 3 3 2 4 4 1 1 3 3 3 3 12 15 9 1 3 8 7 10 12 12 11 12 11 10 11 12 12
9 9 10 12 16 16 15 17 19 20 21 23 24 21 19 15 1 2 2 4 1 4 4 2 2 1 5 1 1 1 0 4 3 2 1 2 5 3 2 2 0 4 2 1 2 0 3 0 2 3 1 1 1 2 2 7 4 2 2 3 7 2 5 8 2 1 2 1 4 2 8 17 18 19 12 8 8 10 14 14 14 13 12 11 11 12 14 13
10 9 10 12 13 13 15 17 20 20 19 25 24 17 5 3 3 3 4 2 1 2 1 1 2 2 2 1 4 4 2 2 2 1 1 0 1 3 4 3 4 1 1 1 2 0 3 2 3 2 4 2 5 8 9 9 5 4 6 6 4 5 5 6 6 2 1 4 7 9 12 14 16 18 20 5 9 12 17 12 10 11 10 10 12 12 12 14
9 10 10 10 13 13 16 18 19 20 21 17 11 8 2 5 6 1 5 2 2 3 2 2 1 2 6 2 1 0 1 1 2 1 2 2 1 1 3 1 3 4 3 3 1 1 1 3 6 9 9 9 6 10 7 5 4 3 3 2 7 7 8 5 3 2 1 1 11 16 10 12 17 20 19 12 4 10 15 14 13 13 11 11 12 14 15 15
7 9 10 11 13 13 16 18 19 18 21 8 5 2 0 2 0 4 4 9 4 1 2 5 5 5 6 1 1 0 1 1 1 0 1 1 1 3 2 1 1 3 1 1 2 1 0 1 12 10 9 7 5 4 6 6 3 3 2 4 8 3 10 4 1 2 4 1 5 4 6 14 17 18 18 10 7 18 20 15 15 18 12 11 13 16 16 17
7 8 9 11 11 12 16 18 18 19 14 1 1 1 0 1 0 1 1 6 4 2 0 3 1 3 2 4 2 2 4 1 1 2 1 2 1 4 3 2 3 7 0 1 1 1 1 9 10 4 3 7 6 5 3 5 4 2 3 3 2 8 6 9 3 1 0 2 9 7 10 17 19 19 20 15 17 20 17 10 18 15 13 11 12 15 14 10
7 7 9 10 12 12 16 17 18 14 5 2 1 1 1 0 3 3 1 0 6 2 3 1 2 7 5 3 1 3 2 6 7 2 5 3 2 4 3 3 2 1 1 2 8 2 5 7 10 3 7 8 3 3 4 4 3 4 2 1 9 3 3 8 2 3 1 2 6 6 15 18 18 17 22 20 11 19 13 10 15 11 13 14 17 15 13 16
6 4 8 9 11 13 15 18 16 3 3 0 0 1 1 2 1 1 0 3 4 6 3 4 3 3 5 2 4 6 5 3 3 4 2 4 7 3 3 5 3 1 8 6 8 10 12 2 0 6 3 4 5 1 4 4 5 2 5 5 5 3 5 8 4 4 4 1 0 10 13 13 9 11 9 3 2 4 14 9 12 10 10 10 7 8 14 17
5 5 7 7 10 12 15 15 4 1 0 1 1 1 1 2 1 0 0 4 1 4 1 2 4 3 3 1 1 5 1 0 5 0 1 3 4 3 2 1 2 8 5 5 4 3 13 5 5 5 2 2 4 2 7 7 6 3 8 13 9 4 6 4 3 4 5 4 3 4 12 5 3 3 9 9 6 6 4 6 13 10 8 8 11 15 12 12
6 6 6 6 8 12 15 4 2 2 3 0 0 1 2 1 3 0 2 0 6 4 3 5 3 1 3 0 1 3 4 3 0 1 1 3 3 2 2 0 2 6 4 6 7 4 7 2 5 7 5 4 5 5 5 7 6 1 7 6 7 5 3 1 2 2 4 3 1 4 1 17 4 1 3 4 3 9 8 7 17 7 9 10 12 12 11 13
7 6 4 6 7 12 5 0 2 3 0 0 2 5 4 3 1 0 1 3 4 5 6 2 1 2 2 0 2 2 1 4 1 1 1 2 2 0 4 5 2 2 3 2 3 7 3 1 4 3 4 5 4 8 5 10 6 6 1 4 5 4 4 4 2 3 6 1 5 1 4 13 15 8 7 9 8 11 14 16 17 14 7 11 12 11 11 11
7 6 4 6 3 5 1 3 6 3 0 1 3 3 3 2 1 1 3 5 4 1 1 2 1 1 1 0 4 1 1 0 1 1 0 2 1 2 1 6 8 8 3 3 8 2 4 3 4 5 2 4 8 4 5 9 7 3 2 5 5 4 3 4 2 4 1 4 6 5 1 4 9 4 2 1 6 11 16 17 17 14 7 9 10 11 12 11
8 6 4 5 4 6 2 0 0 2 0 3 3 3 2 0 1 2 2 5 3 2 4 3 2 1 1 1 1 1 0 1 1 0 2 1 3 2 3 5 4 3 0 5 10 1 1 2 8 8 8 8 4 1 3 10 5 0 7 5 6 6 7 2 3 1 4 3 10 7 9 5 23 6 4 2 2 10 12 15 15 14 10 6 9 10 9 8
8 7 8 4 4 1 1 1 2 1 1 1 2 2 2 1 1 1 2 8 0 1 1 1 3 4 2 5 3 0 2 1 2 0 2 3 2 3 2 2 3 2 3 2 2 5 0 4 4 4 6 4 6 2 1 1 1 7 5 3 3 6 3 3 6 2 2 6 10 11 16 12 15 5 9 9 10 11 12 8 8 8 8 8 8 9 8 9
10 10 8 7 1 2 1 3 3 0 1 2 1 1 0 5 3 4 12 6 1 1 2 1 3 4 6 7 7 0 1 0 1 2 1 0 0 3 0 0 4 3 2 3 6 2 1 2 1 2 5 5 4 5 4 2 3 4 2 2 4 2 6 2 3 4 1 9 3 1 11 11 12 6 5 8 4 7 12 12 11 10 11 10 8 8 9 9
11 11 10 7 3 5 1 4 1 2 0 1 2 3 4 4 4 12 5 0 1 4 6 3 0 3 5 1 4 4 7 0 2 4 8 5 5 8 9 11 7 2 4 6 8 3 5 8 2 1 4 9 3 8 2 2 1 3 5 4 1 6 7 5 2 1 5 8 1 4 5 5 18 21 3 6 12 10 10 9 10 10 9 7 7 8 7 6
12 12 11 6 7 1 3 2 3 2 1 1 2 2 3 4 12 7 1 4 3 3 4 3 3 3 2 3 4 2 1 5 1 2 4 0 5 7 4 4 5 5 8 1 4 2 8 1 2 4 3 5 8 7 2 1 5 5 7 5 4 1 0 5 6 1 7 7 5 2 3 10 13 10 17 19 19 15 13 13 9 8 9 8 6 6 6 6
13 11 6 6 7 5 3 4 4 3 2 2 2 6 6 3 13 5 11 7 6 3 3 2 1 3 4 9 4 6 1 4 6 4 4 2 3 4 8 6 5 3 1 2 3 4 4 8 7 9 5 5 10 12 11 7 10 10 3 9 8 8 5 6 3 8 12 9 2 5 2 9 1 8 6 20 21 14 9 10 9 7 6 4 3 4 5 6
14 11 7 3 3 1 5 5 4 3 3 0 3 6 8 18 2 5 4 5 1 0 2 1 3 3 5 2 1 4 4 2 4 5 5 7 7 6 9 11 8 4 2 3 4 3 10 9 3 3 1 9 11 3 7 8 5 3 3 5 6 9 7 7 4 2 4 7 9 3 9 4 8 2 1 2 5 5 8 11 6 11 9 5 5 8 9 8
10 6 9 5 7 4 6 5 4 4 3 1 6 6 17 12 5 4 6 5 2 4 3 3 3 4 5 2 3 5 3 4 1 3 3 7 3 5 2 3 12 19 12 11 5 5 2 7 1 1 1 5 5 5 3 5 7 5 6 8 7 1 6 1 2 1 3 3 15 1 11 13 7 12 10 14 5 4 8 6 7 12 9 4 7 9 9 8
8 6 7 7 8 7 9 7 5 6 3 3 6 13 14 4 5 5 3 8 6 10 5 7 6 8 4 7 6 6 4 2 3 5 6 2 6 9 4 6 4 12 17 12 3 4 7 6 0 4 6 2 1 0 1 4 3 10 4 7 2 2 4 5 5 2 2 6 12 3 15 21 14 17 4 0 4 9 12 9 11 12 4 5 11 11 10 10
8 5 6 9 12 10 11 9 9 4 3 4 13 21 3 5 1 4 1 3 3 0 5 8 5 10 6 6 4 5 3 9 3 5 5 7 7 4 7 3 7 16 21 6 3 3 4 8 4 4 3 2 2 1 2 1 3 3 3 2 6 3 1 2 4 5 5 6 8 9 21 18 20 19 6 7 9 10 13 12 11 11 9 11 11 13 10 5
6 4 5 11 13 14 11 12 9 8 6 6 13 14 2 3 1 0 6 5 1 4 7 6 5 4 5 4 2 1 7 8 6 8 3 4 4 4 8 7 3 9 8 10 6 3 1 7 3 2 2 0 0 4 8 5 1 1 1 2 1 2 2 6 8 3 5 7 1 17 16 21 11 8 7 13 11 12 10 10 12 14 14 12 11 12 11 9
7 2 7 9 17 15 12 11 8 5 6 14 15 12 2 1 2 4 7 7 4 4 5 5 4 4 3 7 7 7 6 5 7 7 4 3 8 2 4 5 5 4 5 10 7 2 3 3 10 1 5 2 4 7 14 16 12 3 2 2 1 1 3 4 1 5 5 5 7 8 14 22 12 12 9 9 10 11 13 13 11 11 11 11 13 12 10 10
3 2 2 4 15 15 15 10 8 13 12 7 8 8 2 6 3 5 5 6 2 2 3 3 5 8 7 3 6 3 4 6 5 6 7 4 7 7 7 10 8 5 3 4 2 2 2 3 12 2 1 6 11 1 2 1 11 12 15 14 17 10 4 2 12 2 1 4 9 6 20 19 15 8 6 7 9 10 12 13 11 10 11 11 13 12 10 9
9 7 5 10 15 20 16 11 9 6 4 13 14 9 6 8 2 3 1 1 4 4 3 2 6 6 4 7 5 6 5 5 9 6 5 10 4 9 2 7 8 15 13 9 11 3 5 2 1 8 11 13 9 0 2 2 4 5 9 10 10 8 6 5 11 10 2 8 3 3 2 22 14 6 6 6 8 9 12 11 9 9 10 11 12 11 9 9
8 8 4 15 19 21 14 11 9 10 10 4 5 4 1 1 4 3 8 5 4 5 2 5 7 4 7 5 1 4 9 6 9 9 3 4 8 13 5 10 10 7 5 1 5 2 4 2 3 9 8 1 4 2 1 1 3 1 5 1 6 13 17 16 13 4 8 2 5 1 5 20 21 8 4 6 7 9 8 10 11 8 7 9 9 9 9 9
8 6 3 7 18 18 16 14 13 16 13 7 6 7 3 5 4 3 6 6 9 4 11 7 1 9 6 3 4 7 7 5 8 7 4 7 7 4 10 10 15 7 9 9 9 8 4 5 6 5 3 8 2 3 3 4 1 4 5 10 11 7 6 2 3 1 2 15 7 9 17 19 16 8 4 3 2 5 6 7 6 7 8 8 8 9 8 9
3 3 3 4 9 13 17 12 12 10 16 17 13 14 10 4 8 16 10 8 6 6 2 5 7 3 5 4 4 4 6 17 6 6 11 6 8 1 7 15 14 9 6 2 2 9 7 6 9 8 15 15 15 15 8 5 11 5 2 2 10 19 16 4 8 9 13 9 13 8 19 26 23 8 7 7 5 6 4 7 6 8 7 7 8 9 10 9
5 5 3 3 7 10 10 3 1 9 13 14 12 14 11 10 7 4 12 11 10 2 4 1 2 3 6 3 6 9 13 7 11 3 4 5 3 0 2 5 12 3 4 2 5 9 3 4 13 16 15 17 18 13 2 8 5 6 6 10 13 12 17 14 11 10 18 3 8 18 28 28 21 25 24 26 10 11 11 7 7 9 10 11 10 10 10 11
1 9 9 8 2 10 10 11 9 5 10 12 10 6 19 19 10 3 12 6 10 13 2 5 5 3 5 9 13 17 15 10 6 9 12 11 0 1 2 4 3 3 2 3 2 3 2 5 12 17 20 19 17 19 8 9 7 7 8 9 15 15 14 18 17 25 7 3 17 24 26 14 22 27 34 32 23 11 14 16 14 10 9 11 13 12 9 7
7 2 8 8 13 13 15 17 17 17 8 9 11 5 9 9 11 12 2 9 2 8 10 2 11 17 19 20 16 11 11 10 5 14 18 8 4 1 0 1 6 1 4 0 1 4 4 9 13 16 18 18 20 23 12 5 8 7 9 13 16 16 14 19 26 28 11 18 26 24 15 15 22 32 35 31 21 13 14 18 15 12 10 6 6 8 10 12
6 2 3 8 10 5 24 21 25 23 22 19 10 14 15 16 20 18 8 2 5 5 17 13 19 27 27 22 13 12 7 6 14 16 10 10 8 3 5 1 1 1 5 2 2 3 2 8 9 8 12 11 17 19 9 7 7 9 10 13 19 20 17 22 28 26 27 25 20 20 19 22 26 35 31 24 17 10 13 15 15 14 13 10 11 11 10 11
9 7 5 4 10 8 9 11 9 16 17 18 14 15 16 21 22 14 4 9 7 10 13 20 25 22 20 18 13 12 17 20 19 15 8 11 1 7 6 7 2 3 0 6 4 3 7 8 10 7 9 13 17 17 10 7 10 15 17 19 26 24 16 22 24 28 22 12 18 19 19 24 30 33 23 19 20 12 15 21 25 25 18 16 17 14 11 13
4 4 2 3 10 11 11 11 11 13 16 14 14 16 15 20 21 18 16 12 23 10 9 26 25 16 3 10 15 24 28 27 23 26 10 13 14 7 6 4 8 5 4 2 2 1 6 5 4 4 10 15 15 17 12 8 11 13 17 26 32 26 22 22 25 18 8 19 20 13 16 23 29 28 12 16 19 18 21 24 25 21 18 15 15 17 12 13
8 2 2 5 12 11 17 10 13 9 15 15 17 24 17 24 25 18 13 6 11 15 14 19 19 15 4 11 20 26 29 24 23 20 17 6 4 5 12 6 12 11 8 8 3 6 6 3 4 8 12 17 18 10 3 3 0 5 18 32 26 21 24 29 23 11 15 15 15 18 24 24 25 17 14 15 9 11 18 21 21 19 16 13 16 20 16 11
Wind_Direction
6 5 5 4 3 4 3 1 358 358 357 357 359 357 356 351 344 344 356 352 345 338 328 329 325 322 324 328 335 342 17 85 34 25 64 243 233 263 301 301 304 309 53 59 80 128 212 14 28 336 54 55 319 57 272 58 72 55 67 118 108 198 147 204 184 193 197 122 209 192 204 134 221 222 201 142 51 75 21 236 297 299 258 221 273 297 152 131
4 3 2 1 0 0 1 359 359 358 356 354 354 355 355 352 346 339 345 351 350 337 334 324 324 325 321 325 350 357 59 60 54 67 218 347 272 318 307 302 308 308 155 47 93 107 91 330 66 56 104 56 325 317 348 341 92 88 129 86 241 173 238 162 206 191 132 294 209 191 192 178 220 152 203 152 240 130 164 242 213 279 282 49 78 126 136 142
2 1 359 358 358 358 358 358 357 358 356 353 351 352 352 350 348 340 340 341 347 346 332 325 325 321 325 325 343 343 2 353 34 269 234 7 322 310 309 311 318 311 167 214 198 126 120 191 153 102 11 107 4 179 42 332 39 221 114 154 257 209 242 221 182 203 196 120 140 167 205 168 220 162 106 219 163 138 209 206 244 237 234 181 155 157 149 152
1 359 358 356 356 356 355 355 356 355 355 354 351 350 346 344 345 345 339 332 336 344 336 325 322 323 316 328 347 322 68 51 276 238 274 299 308 314 312 318 351 104 92 58 136 106 99 79 69 102 66 64 314 38 63 304 24 204 75 163 226 190 179 228 192 235 188 149 160 164 54 208 244 200 167 176 123 236 244 229 196 208 213 166 168 164 165 161
360 359 358 356 354 353 352 352 352 352 352 352 350 345 341 342 337 342 341 331 330 334 339 328 328 321 319 326 347 31 60 49 258 272 265 312 319 312 315 343 91 56 92 141 86 63 75 83 81 37 73 155 4 14 41 323 120 89 225 221 171 124 286 236 202 210 147 164 107 123 138 222 96 68 216 161 202 233 208 232 219 232 164 153 169 181 170 171
357 358 357 356 354 352 350 349 349 349 348 347 346 346 342 336 336 332 334 333 328 332 331 334 323 322 324 342 49 72 84 318 221 258 327 316 315 319 342 69 90 101 90 49 95 16 60 0 67 29 17 69 334 113 287 181 360 230 310 267 205 209 198 205 174 218 141 134 141 148 216 93 170 240 212 202 218 229 222 59 224 208 166 173 161 159 175 178
355 355 356 354 353 351 349 347 346 346 345 343 342 341 339 335 331 334 327 327 325 327 329 326 325 327 326 326 56 92 175 267 37 262 350 334 334 325 64 67 73 59 73 83 19 74 49 61 71 153 95 67 259 127 213 306 359 116 202 283 280 172 226 158 153 118 189 136 215 194 89 182 158 245 124 211 234 219 253 253 244 165 144 148 160 184 180 184
352 352 353 354 352 350 348 346 344 343 341 340 338 336 335 332 329 326 328 324 319 326 324 320 320 333 355 58 329 318 28 255 234 304 331 346 12 304 121 79 79 97 61 78 144 104 115 42 104 171 61 144 201 142 350 152 29 119 315 215 269 142 246 286 201 165 177 235 52 147 179 235 186 207 44 246 234 231 221 105 116 132 144 162 172 180 188 189
349 349 349 350 351 349 347 345 343 340 339 338 335 330 330 333 331 326 320 318 316 318 324 319 312 349 89 85 109 12 272 240 211 307 8 33 32 50 121 271 22 131 134 73 4 153 127 242 155 202 241 138 171 141 324 158 294 156 200 150 319 259 300 305 321 186 169 178 128 118 257 263 278 270 258 256 244 206 148 117 138 142 157 176 186 185 184 189
346 348 347 349 351 348 345 343 341 338 337 335 332 329 327 328 324 321 318 312 312 316 317 305 347 331 95 90 49 33 258 150 305 332 11 146 70 61 46 65 49 101 102 342 36 61 82 203 153 168 128 77 135 140 287 121 277 144 171 194 194 265 346 356 221 336 143 194 176 196 263 285 333 85 279 59 309 128 125 136 165 159 179 188 188 191 195 188
345 346 345 347 349 346 342 341 340 337 334 332 329 326 321 322 324 321 313 306 310 309 302 303 335 246 58 97 140 217 215 89 343 7 35 130 65 53 8 336 97 76 105 46 90 173 108 136 150 120 35 224 128 315 150 187 135 59 160 259 245 315 266 274 317 279 293 264 173 178 254 256 312 72 243 206 183 154 146 167 176 189 189 191 193 192 196 200
344 343 342 345 346 344 342 341 339 336 332 329 327 323 319 318 321 317 311 304 307 307 264 17 83 106 81 77 163 217 207 189 103 51 37 73 70 55 209 301 258 153 145 139 16 225 192 151 116 80 213 142 11 105 61 175 56 215 157 286 298 349 315 149 217 319 181 251 158 168 272 263 177 227 237 151 164 138 157 175 194 201 202 198 197 196 198 204
342 342 342 342 343 341 342 340 337 332 330 327 324 320 317 316 318 313 307 308 304 301 86 85 81 89 89 334 236 231 248 163 110 58 51 56 96 70 89 49 64 84 157 129 163 186 153 134 118 86 220 100 156 145 175 72 353 76 36 96 329 2 324 318 18 19 139 263 157 181 292 239 221 231 234 177 136 118 145 196 204 212 203 202 199 203 206 201
339 341 342 340 338 337 339 337 334 330 329 326 322 320 316 312 317 313 307 304 299 266 138 99 89 69 101 238 267 239 220 126 123 47 17 284 52 17 24 20 58 55 32 90 101 148 106 88 105 110 132 79 140 158 44 343 18 173 266 66 218 8 265 303 99 188 157 160 178 40 233 281 253 230 250 173 170 161 202 216 209 211 210 205 207 206 208 212
334 340 339 338 337 335 336 335 332 331 329 327 322 317 313 314 318 313 316 325 93 123 115 86 57 99 59 267 245 289 138 126 65 332 334 77 119 48 9 11 38 32 62 105 135 174 131 106 77 49 346 242 347 100 358 14 2 21 22 290 323 159 282 292 285 181 197 2 165 131 274 255 279 278 257 178 181 181 220 217 217 211 211 211 207 211 215 217
333 335 336 334 335 339 339 335 333 331 331 325 322 315 308 315 317 319 8 104 80 90 91 119 7 105 100 295 182 124 70 140 234 291 300 120 134 141 171 115 76 27 33 24 53 81 51 81 73 170 191 6 58 87 29 15 335 354 92 266 274 50 260 328 305 255 295 110 321 190 242 326 291 278 339 180 174 200 226 234 223 219 217 212 211 212 217 217
328 331 332 334 339 341 341 335 334 333 329 324 320 311 308 312 318 55 92 89 42 9 83 220 122 129 260 233 101 21 251 290 291 3 338 18 129 149 100 49 16 35 25 66 36 51 357 64 267 18 37 109 121 101 339 7 317 304 35 222 209 220 288 284 308 117 347 162 221 251 236 246 261 266 189 179 189 193 233 234 231 224 219 211 212 214 215 216
322 327 329 336 341 339 334 335 331 332 328 323 319 307 302 314 235 176 104 38 359 69 89 86 113 27 304 349 195 229 143 289 360 234 265 312 107 91 99 97 328 88 47 24 356 109 327 121 32 199 2 8 75 64 139 245 210 239 261 300 298 278 217 247 287 250 46 85 225 271 248 258 263 276 259 202 193 208 234 230 229 226 220 212 211 215 218 218
317 320 328 334 336 333 330 330 330 327 328 325 313 307 293 83 35 94 69 358 49 347 11 264 127 129 208 211 310 322 241 204 156 115 206 112 15 104 61 78 89 134 311 57 252 124 349 80 34 30 243 153 215 182 190 219 156 215 194 212 201 259 251 221 237 274 147 265 263 229 234 254 262 266 273 223 202 212 244 243 246 241 229 214 212 218 218 221
309 316 322 324 333 330 328 327 328 327 331 335 346 350 17 14 4 328 341 23 180 199 192 221 247 309 315 289 205 233 106 97 124 292 295 272 105 55 23 68 23 66 106 211 280 69 1 181 217 217 219 218 221 200 204 194 148 92 103 147 238 238 280 280 232 263 31 283 246 256 252 256 263 264 265 272 192 248 253 248 242 240 226 215 213 219 221 221
303 309 313 326 331 330 326 328 327 325 327 331 323 21 77 172 350 298 306 267 238 170 229 236 190 215 245 113 275 103 174 280 95 219 203 132 123 111 265 57 29 207 304 199 158 312 85 244 245 223 217 199 212 155 107 83 68 152 153 200 269 179 261 251 272 3 317 162 291 294 284 264 261 264 265 257 248 256 247 243 244 246 226 219 215 223 221 226
290 295 308 325 327 325 327 325 325 324 329 103 57 79 230 193 197 239 91 311 323 240 267 255 82 282 307 211 249 156 98 329 281 232 307 139 350 151 283 124 152 208 331 121 24 50 74 218 245 208 165 95 80 118 123 142 144 79 188 200 295 264 253 288 344 358 318 135 264 292 286 271 267 264 266 245 234 251 255 221 240 238 231 220 219 226 224 215
276 292 314 323 326 329 325 324 322 334 9 30 48 87 178 246 342 289 91 135 270 263 238 205 231 244 277 287 276 131 173 204 240 240 209 126 62 206 155 116 166 170 41 180 179 169 276 271 257 172 139 107 54 77 100 71 73 142 119 161 236 219 18 306 285 8 256 190 291 293 286 276 267 258 255 263 231 253 261 235 240 225 227 215 219 215 213 218
278 289 298 315 333 322 324 325 322 22 16 41 263 175 2 12 325 359 74 230 277 306 209 226 187 195 217 145 216 147 174 259 129 269 334 131 159 177 115 155 124 147 225 178 188 182 214 196 78 126 159 132 144 141 132 167 230 276 189 216 255 245 228 196 260 300 263 337 100 292 273 270 241 241 269 349 321 279 268 265 258 238 226 226 231 221 214 216
255 265 288 312 334 325 323 325 20 331 332 327 285 274 341 348 293 247 113 326 3 282 196 308 138 249 202 101 25 172 246 335 218 228 229 127 147 93 226 187 137 230 195 194 152 228 271 234 141 108 101 90 120 193 219 154 236 314 225 210 220 204 246 261 347 13 6 323 347 6 331 292 314 257 258 272 338 289 256 243 255 239 220 217 223 229 221 226
236 250 282 321 327 333 319 322 328 344 349 175 298 343 348 332 296 272 96 99 270 266 3 247 149 261 135 73 40 182 105 260 208 213 114 212 196 154 87 209 142 232 150 135 180 192 219 43 172 179 158 166 190 215 234 164 198 63 266 195 212 218 210 246 307 46 305 193 311 34 102 288 115 238 255 281 249 273 284 276 275 238 213 209 224 229 218 216
234 242 284 315 328 347 3 31 287 289 62 332 9 342 324 314 223 335 338 318 295 214 167 262 81 246 64 240 144 116 136 263 331 44 50 308 170 301 153 220 31 31 167 176 47 255 95 53 69 68 127 156 179 242 236 160 128 235 249 114 118 129 170 202 145 179 237 55 308 264 181 275 281 237 244 238 263 274 281 277 270 270 222 213 221 226 222 213
232 237 270 273 351 13 213 307 352 355 225 308 334 337 319 276 327 13 76 293 272 94 123 221 219 343 76 310 69 159 201 292 73 227 136 290 87 7 171 208 181 186 188 121 211 276 123 159 164 136 114 151 209 212 194 165 149 223 194 117 145 152 180 146 149 206 211 20 293 257 244 293 254 265 296 334 248 259 258 257 265 269 250 218 223 228 223 215
219 218 226 263 87 98 83 135 87 254 229 296 324 339 334 15 85 111 132 237 248 77 276 74 270 47 20 18 246 73 337 347 166 304 315 19 21 147 208 232 164 144 28 179 224 266 300 157 204 157 145 211 219 287 192 173 205 234 125 91 79 73 66 95 124 144 309 63 272 225 181 207 278 177 146 2 179 243 249 248 250 253 257 230 233 235 226 216
209 209 217 170 101 68 38 62 225 238 349 326 303 313 8 49 71 204 287 238 321 220 132 179 147 209 94 143 266 22 199 318 126 338 25 149 342 40 11 138 118 110 227 4 276 217 337 285 168 144 190 196 134 77 117 29 81 126 106 76 21 35 37 27 72 83 14 250 246 242 181 180 277 172 183 157 199 199 224 262 270 268 261 247 234 229 217 210
205 202 213 151 154 206 107 320 260 264 254 298 242 355 81 40 133 124 235 217 351 213 51 200 192 77 138 162 214 297 104 95 249 135 131 7 358 46 104 31 64 50 33 344 280 289 102 48 198 252 88 108 101 77 35 66 115 118 123 133 22 332 6 42 339 45 190 270 242 278 183 187 224 271 246 232 279 218 188 207 228 243 248 239 223 226 222 212
202 199 190 163 175 126 193 248 233 133 195 308 43 71 90 223 12 215 231 347 271 233 167 217 352 159 200 304 76 170 174 329 221 170 174 186 161 166 201 185 158 128 306 214 250 29 264 200 227 72 208 130 119 84 3 16 47 97 82 42 79 276 17 315 30 272 199 239 184 67 134 323 234 245 230 264 257 242 229 212 196 215 238 233 226 223 219 213
198 204 183 159 126 140 221 202 132 164 112 15 69 66 111 110 246 179 52 179 251 150 242 86 187 158 174 99 249 191 265 182 212 191 112 249 156 247 279 205 202 148 237 255 227 18 278 44 133 201 82 227 142 163 198 262 210 143 159 150 99 302 184 272 268 210 305 280 258 149 135 249 277 276 214 227 231 223 218 221 225 206 218 220 220 217 219 209
197 190 179 178 183 188 169 139 153 146 64 25 114 69 54 195 244 109 180 213 207 360 57 100 73 57 151 187 234 160 201 241 144 204 170 187 154 233 247 242 175 259 88 113 188 185 308 299 240 150 239 169 184 208 187 163 159 200 121 155 188 142 154 246 215 257 264 261 281 270 68 240 45 247 212 203 225 228 213 224 222 240 238 234 255 259 245 218
196 191 173 124 166 206 154 158 150 110 81 92 120 151 171 232 104 188 222 212 277 33 87 308 113 100 262 306 282 262 184 256 154 118 192 151 218 201 191 200 214 120 150 150 245 90 218 243 250 201 282 152 186 203 115 104 70 173 168 75 104 221 136 227 204 195 293 332 314 187 209 198 225 52 273 291 289 252 232 231 230 248 235 211 260 246 235 220
188 200 168 183 165 192 159 142 148 83 81 163 156 198 221 212 221 169 223 154 138 168 174 47 88 178 246 301 310 213 295 192 259 131 244 212 238 213 200 190 183 189 167 191 163 192 31 270 234 207 293 203 188 132 206 149 202 203 122 206 205 129 143 83 3 71 78 55 266 132 284 265 280 264 206 236 199 254 239 233 228 241 235 180 236 245 235 222
202 149 203 159 172 168 159 146 128 105 77 218 187 224 227 267 193 158 199 172 201 131 109 188 226 173 197 234 205 188 221 79 247 158 247 146 289 206 222 258 175 193 208 167 261 198 170 243 283 134 218 261 51 139 53 21 145 109 213 226 127 141 107 133 221 336 66 212 265 30 267 285 291 290 69 121 176 216 233 226 226 237 231 211 240 243 234 224
183 190 217 189 175 154 149 153 133 95 87 175 221 232 72 215 294 172 78 70 55 87 148 194 269 157 236 205 261 164 219 179 215 138 242 181 255 159 156 195 199 188 208 218 190 259 132 281 230 240 36 30 358 114 41 340 33 139 190 222 120 220 186 309 87 252 251 244 264 282 273 269 255 262 252 239 195 223 228 227 234 245 238 231 242 247 244 222
172 151 247 190 151 150 154 151 142 137 131 188 232 254 254 235 312 148 216 158 143 138 200 231 202 222 166 196 184 34 155 190 173 194 184 225 226 193 177 169 231 209 209 173 224 214 162 211 285 20 110 332 14 134 203 187 344 68 61 71 348 104 173 145 198 197 113 252 350 273 287 272 253 188 200 240 202 210 208 214 220 223 224 220 228 238 234 215
155 167 256 140 156 145 147 148 136 137 173 205 217 227 152 357 240 242 228 179 226 156 237 212 215 257 198 212 154 179 234 211 166 223 188 239 212 266 186 234 172 162 185 200 192 81 203 110 243 43 304 34 192 189 214 173 163 190 148 235 344 231 229 110 336 159 183 203 210 269 280 273 263 169 192 208 194 196 191 204 209 220 226 220 224 225 224 215
158 220 269 129 142 141 142 147 162 182 198 250 235 226 150 226 206 248 233 176 232 328 180 174 162 206 206 150 254 176 178 189 181 195 199 274 191 274 204 181 153 137 109 51 283 224 147 168 222 135 274 226 242 190 253 149 193 175 178 194 189 144 153 147 256 69 132 179 236 166 248 264 279 125 153 176 194 182 209 197 203 218 219 218 227 227 216 218
158 221 192 147 147 148 151 170 206 193 212 207 212 187 221 205 247 235 206 215 188 245 356 220 227 211 199 218 178 171 171 197 211 212 236 217 234 208 265 163 153 149 139 183 192 214 155 125 188 222 224 236 241 100 273 272 147 196 186 217 178 197 127 165 239 234 52 252 89 173 356 267 256 139 156 180 177 192 198 196 203 220 216 223 227 225 224 220
191 213 40 161 163 159 168 202 191 201 220 243 43 291 181 26 200 210 190 191 211 184 240 222 213 195 248 217 151 191 180 232 177 211 181 223 242 214 210 152 129 147 63 69 62 252 99 107 208 260 279 325 39 328 326 324 106 88 270 116 135 200 196 208 223 169 188 187 200 265 250 261 267 114 185 177 194 189 203 185 213 227 217 231 230 230 224 223
198 153 175 209 182 171 170 187 203 209 219 257 229 245 136 218 175 208 205 200 186 179 211 218 39 209 246 149 166 224 176 247 220 186 239 216 253 261 144 158 157 178 160 210 155 195 144 227 171 239 318 287 331 40 22 340 22 221 201 205 206 234 240 246 59 69 236 225 166 131 245 258 267 101 138 233 159 221 210 238 212 224 229 235 234 236 231 228
128 65 56 183 210 199 195 197 201 183 211 217 211 228 225 233 222 221 204 205 210 205 151 237 223 137 212 170 207 241 205 210 262 215 223 205 237 115 214 167 186 184 214 208 155 170 179 166 158 195 226 239 246 239 231 215 210 215 238 136 191 206 203 125 248 211 230 229 135 201 250 251 261 282 267 229 206 242 225 230 231 223 231 228 235 233 229 219
173 185 149 182 218 242 249 316 213 210 208 211 230 233 229 234 260 220 195 234 197 234 207 194 356 177 209 165 224 228 237 229 213 236 181 250 254 358 287 240 192 188 2 41 153 153 192 196 191 209 218 231 242 257 197 109 75 190 231 186 215 214 212 207 234 230 226 200 173 227 236 257 276 279 276 266 220 256 271 240 211 241 238 235 238 233 225 216
153 204 143 196 228 252 244 227 228 224 221 187 217 163 223 221 231 325 180 232 200 203 221 204 205 166 225 205 222 235 227 230 223 246 241 231 285 260 324 140 291 337 353 22 303 101 76 210 222 224 226 235 244 256 233 158 199 219 197 222 220 206 198 206 212 236 185 101 247 236 246 264 268 273 269 271 269 269 276 281 278 259 236 226 230 230 225 220
224 210 184 179 170 191 205 236 219 223 236 177 225 192 239 223 218 235 177 218 114 182 192 254 214 221 223 208 212 229 220 227 176 232 237 250 238 249 36 231 188 164 103 206 301 171 175 228 227 228 237 241 246 252 243 163 227 224 197 220 229 216 200 208 229 238 193 214 237 252 250 246 257 257 262 266 278 277 273 274 271 263 264 236 234 222 211 214
235 2 237 150 224 170 201 206 202 207 212 201 220 207 225 221 225 217 198 107 181 219 194 224 217 219 220 223 208 231 218 227 234 230 228 231 199 136 239 327 277 104 158 182 207 175 154 242 248 244 259 251 258 256 244 199 244 254 242 240 245 239 214 215 237 238 225 233 245 258 264 263 260 260 261 272 280 281 284 284 282 270 259 254 244 236 218 214
207 196 228 214 224 214 215 228 220 205 218 202 217 209 221 222 231 222 183 169 216 218 203 224 233 229 219 223 214 224 226 225 228 238 203 202 166 189 221 196 167 349 217 199 161 254 173 236 226 255 268 259 259 262 256 223 246 257 262 263 255 251 242 232 239 247 252 263 254 255 264 263 258 260 269 283 283 294 286 280 276 274 272 266 265 253 224 220
255 222 147 160 221 217 228 209 207 200 213 210 221 225 232 229 236 223 225 197 216 202 182 220 230 243 112 196 211 223 228 229 226 235 210 163 209 193 188 256 162 161 187 210 175 281 180 249 230 271 267 266 262 264 267 234 235 242 257 259 257 254 250 249 243 241 244 250 253 250 246 249 257 263 277 269 274 273 268 266 267 268 267 267 266 266 241 222
249 249 193 228 241 171 210 204 212 205 221 207 206 214 210 222 226 219 254 214 235 226 209 213 227 226 209 202 222 226 230 229 232 232 237 200 189 192 201 176 168 161 175 200 151 153 181 196 221 239 245 250 257 262 187 163 96 280 240 242 255 266 252 254 259 247 226 240 253 247 248 249 259 270 270 258 241 251 259 260 264 264 264 259 261 260 250 222